Previsão horária em Jurowlany

Hoje, 24 Julho, Sábado

Tempo Temperatura Precipitação Vento Pressão Humidade
00:00 +16°C° 0 mm 1 m/s 748 mmHg 86%
01:00 +16°C° 0 mm 1 m/s 749 mmHg 87%
02:00 +15°C° 0 mm 1 m/s 749 mmHg 89%
03:00 +15°C° 0 mm 1 m/s 748 mmHg 89%
04:00 +15°C° 0 mm 1 m/s 748 mmHg 90%
05:00 +15°C° 0 mm 1 m/s 748 mmHg 91%
06:00 +18°C° 0 mm 1 m/s 748 mmHg 85%
07:00 +19°C° 0 mm 1 m/s 749 mmHg 80%
08:00 +21°C° 0 mm 1 m/s 749 mmHg 73%
09:00 +23°C° 0 mm 1 m/s 749 mmHg 67%
10:00 +24°C° 0 mm 1 m/s 749 mmHg 61%
11:00 +25°C° 0 mm 1 m/s 749 mmHg 55%
12:00 +25°C° 0.1 mm 1 m/s 749 mmHg 54%
13:00 +26°C° 0.1 mm 1 m/s 749 mmHg 53%
14:00 +26°C° 0.1 mm 1 m/s 749 mmHg 52%
15:00 +26°C° 0 mm 1 m/s 749 mmHg 54%
16:00 +26°C° 0 mm 1 m/s 749 mmHg 56%
17:00 +25°C° 0 mm 1 m/s 749 mmHg 58%
18:00 +24°C° 0 mm 1 m/s 749 mmHg 61%
19:00 +23°C° 0 mm 1 m/s 749 mmHg 65%
20:00 +20°C° 0 mm 0 m/s 749 mmHg 68%
21:00 +22°C° 0 mm 1 m/s 749 mmHg 70%
22:00 +21°C° 0 mm 1 m/s 749 mmHg 71%
23:00 +20°C° 0 mm 1 m/s 749 mmHg 73%

Amanhã, 25 Julho, Domingo

Tempo Temperatura Precipitação Vento Pressão Humidade
00:00 +20°C° 0 mm 1 m/s 749 mmHg 74%
01:00 +20°C° 0 mm 1 m/s 749 mmHg 76%
02:00 +19°C° 0 mm 1 m/s 749 mmHg 78%
03:00 +19°C° 0 mm 1 m/s 749 mmHg 78%
04:00 +19°C° 0 mm 1 m/s 749 mmHg 79%
05:00 +19°C° 0 mm 1 m/s 749 mmHg 79%
06:00 +20°C° 0 mm 2 m/s 749 mmHg 75%
07:00 +21°C° 0 mm 2 m/s 750 mmHg 71%
08:00 +23°C° 0 mm 2 m/s 750 mmHg 66%
09:00 +25°C° 0.1 mm 2 m/s 750 mmHg 61%
10:00 +26°C° 0.1 mm 2 m/s 750 mmHg 56%
11:00 +27°C° 0.1 mm 3 m/s 750 mmHg 51%
12:00 +27°C° 0 mm 3 m/s 750 mmHg 50%
13:00 +27°C° 0 mm 2 m/s 750 mmHg 50%
14:00 +27°C° 0 mm 2 m/s 750 mmHg 50%
15:00 +27°C° 0 mm 3 m/s 750 mmHg 51%
16:00 +27°C° 0 mm 3 m/s 749 mmHg 51%
17:00 +27°C° 0 mm 3 m/s 749 mmHg 52%
18:00 +26°C° 0 mm 3 m/s 749 mmHg 58%
19:00 +24°C° 0 mm 3 m/s 750 mmHg 64%
20:00 +22°C° 0 mm 3 m/s 750 mmHg 70%
21:00 +21°C° 0 mm 3 m/s 750 mmHg 70%
22:00 +20°C° 0 mm 3 m/s 750 mmHg 69%
23:00 +19°C° 0 mm 3 m/s 750 mmHg 69%

Depois de amanhã, 26 Julho, Segunda-feira

Tempo Temperatura Precipitação Vento Pressão Humidade
00:00 +19°C° 0 mm 3 m/s 750 mmHg 70%
01:00 +18°C° 0 mm 3 m/s 750 mmHg 71%
02:00 +18°C° 0 mm 3 m/s 750 mmHg 72%
03:00 +18°C° 0 mm 3 m/s 750 mmHg 74%
04:00 +17°C° 0 mm 3 m/s 750 mmHg 75%
05:00 +17°C° 0 mm 3 m/s 750 mmHg 76%
06:00 +19°C° 0 mm 4 m/s 750 mmHg 73%
07:00 +20°C° 0 mm 4 m/s 750 mmHg 70%
08:00 +22°C° 0 mm 5 m/s 750 mmHg 66%
09:00 +23°C° 0 mm 5 m/s 750 mmHg 62%
10:00 +26°C° 0 mm 6 m/s 750 mmHg 57%
11:00 +28°C° 0 mm 6 m/s 750 mmHg 52%
12:00 +28°C° 0 mm 6 m/s 750 mmHg 50%
13:00 +29°C° 0 mm 6 m/s 750 mmHg 48%
14:00 +29°C° 0 mm 7 m/s 750 mmHg 46%
15:00 +29°C° 0 mm 6 m/s 749 mmHg 47%
16:00 +30°C° 0 mm 6 m/s 749 mmHg 48%
17:00 +30°C° 0 mm 5 m/s 749 mmHg 49%
18:00 +28°C° 0 mm 5 m/s 748 mmHg 55%
19:00 +27°C° 0 mm 5 m/s 748 mmHg 60%
20:00 +25°C° 0 mm 4 m/s 748 mmHg 65%
21:00 +23°C° 0.2 mm 4 m/s 748 mmHg 71%
22:00 +21°C° 0.2 mm 4 m/s 748 mmHg 76%
23:00 +20°C° 0.2 mm 4 m/s 748 mmHg 81%

27 Julho, Terça-feira

Tempo Temperatura Precipitação Vento Pressão Humidade
00:00 +20°C° 0 mm 4 m/s 748 mmHg 83%
01:00 +20°C° 0 mm 4 m/s 748 mmHg 84%
02:00 +19°C° 0 mm 4 m/s 748 mmHg 86%
03:00 +19°C° 0.3 mm 5 m/s 748 mmHg 87%
04:00 +19°C° 0.3 mm 5 m/s 748 mmHg 89%
05:00 +19°C° 0.3 mm 5 m/s 747 mmHg 90%
06:00 +20°C° 0.1 mm 5 m/s 747 mmHg 87%
07:00 +21°C° 0.1 mm 5 m/s 748 mmHg 83%
08:00 +22°C° 0.1 mm 5 m/s 748 mmHg 80%
09:00 +23°C° 0.2 mm 4 m/s 748 mmHg 74%
10:00 +26°C° 0.2 mm 4 m/s 748 mmHg 68%
11:00 +28°C° 0.2 mm 4 m/s 748 mmHg 62%
12:00 +28°C° 0.1 mm 4 m/s 748 mmHg 60%
13:00 +29°C° 0.1 mm 3 m/s 748 mmHg 58%
14:00 +30°C° 0.1 mm 3 m/s 747 mmHg 56%
15:00 +28°C° 0.8 mm 3 m/s 747 mmHg 64%
16:00 +27°C° 0.8 mm 3 m/s 747 mmHg 72%
17:00 +25°C° 0.8 mm 2 m/s 747 mmHg 79%
18:00 +24°C° 0.8 mm 2 m/s 747 mmHg 80%
19:00 +23°C° 0.8 mm 2 m/s 747 mmHg 81%
20:00 +22°C° 0.8 mm 1 m/s 747 mmHg 83%
21:00 +21°C° 0.1 mm 1 m/s 747 mmHg 83%
22:00 +21°C° 0.1 mm 1 m/s 747 mmHg 84%
23:00 +20°C° 0.1 mm 1 m/s 747 mmHg 85%

28 Julho, Quarta-feira

Tempo Temperatura Precipitação Vento Pressão Humidade
00:00 +20°C° 0.2 mm 1 m/s 747 mmHg 86%
01:00 +20°C° 0.2 mm 1 m/s 747 mmHg 87%
02:00 +17°C° 0.2 mm 0 m/s 747 mmHg 88%
03:00 +19°C° 0 mm 1 m/s 747 mmHg 89%
04:00 +19°C° 0 mm 1 m/s 746 mmHg 90%
05:00 +19°C° 0 mm 1 m/s 746 mmHg 91%
06:00 +21°C° 0 mm 1 m/s 746 mmHg 87%
07:00 +22°C° 0 mm 1 m/s 746 mmHg 83%
08:00 +24°C° 0 mm 1 m/s 747 mmHg 78%
09:00 +25°C° 0.2 mm 1 m/s 747 mmHg 71%
10:00 +27°C° 0.2 mm 1 m/s 747 mmHg 65%
11:00 +28°C° 0.2 mm 2 m/s 747 mmHg 58%
12:00 +29°C° 0.1 mm 2 m/s 746 mmHg 54%
13:00 +30°C° 0.1 mm 2 m/s 746 mmHg 49%
14:00 +31°C° 0.1 mm 2 m/s 746 mmHg 45%
15:00 +30°C° 0 mm 2 m/s 746 mmHg 48%
16:00 +30°C° 0 mm 2 m/s 746 mmHg 50%
17:00 +29°C° 0 mm 1 m/s 746 mmHg 52%
18:00 +27°C° 0 mm 1 m/s 746 mmHg 59%
19:00 +26°C° 0 mm 1 m/s 746 mmHg 66%
20:00 +24°C° 0 mm 1 m/s 745 mmHg 73%
21:00 +24°C° 0 mm 1 m/s 745 mmHg 74%
22:00 +23°C° 0 mm 1 m/s 745 mmHg 75%
23:00 +21°C° 0 mm 2 m/s 745 mmHg 76%

29 Julho, Quinta-feira

Tempo Temperatura Precipitação Vento Pressão Humidade
00:00 +21°C° 0 mm 2 m/s 745 mmHg 77%
01:00 +20°C° 0 mm 2 m/s 745 mmHg 78%
02:00 +20°C° 0 mm 2 m/s 745 mmHg 79%
03:00 +20°C° 0 mm 2 m/s 746 mmHg 80%
04:00 +19°C° 0 mm 3 m/s 746 mmHg 82%
05:00 +19°C° 0 mm 3 m/s 746 mmHg 84%
06:00 +20°C° 0 mm 3 m/s 746 mmHg 82%
07:00 +21°C° 0 mm 4 m/s 747 mmHg 80%
08:00 +21°C° 0 mm 4 m/s 747 mmHg 78%
09:00 +22°C° 0 mm 4 m/s 747 mmHg 73%
10:00 +23°C° 0 mm 4 m/s 747 mmHg 67%
11:00 +25°C° 0 mm 4 m/s 747 mmHg 62%
12:00 +26°C° 0 mm 4 m/s 747 mmHg 58%
13:00 +27°C° 0 mm 4 m/s 747 mmHg 53%
14:00 +27°C° 0 mm 4 m/s 747 mmHg 49%
15:00 +27°C° 0 mm 3 m/s 747 mmHg 49%
16:00 +27°C° 0 mm 3 m/s 747 mmHg 48%
17:00 +27°C° 0 mm 3 m/s 747 mmHg 48%
18:00 +26°C° 0 mm 2 m/s 747 mmHg 53%
19:00 +24°C° 0 mm 2 m/s 747 mmHg 59%
20:00 +23°C° 0 mm 1 m/s 747 mmHg 64%
21:00 +22°C° 0 mm 1 m/s 747 mmHg 65%
22:00 +21°C° 0 mm 1 m/s 747 mmHg 65%
23:00 +20°C° 0 mm 1 m/s 747 mmHg 66%
Mostrar mais

Necessitamos do seu Consentimento

A Meteoprog e os seus Fornecedores de Serviços podem armazenar e aceder a dados pessoais como cookies, identificadores do dispositivo ou outras tecnologias semelhantes existentes no seu dispositivo e processar estes dados para personalizar conteúdos e anúncios, assim como funcionalidades nas redes sociais e análise de tráfego.

  • Armazenar e/ou aceder a informações no seu dispositivo

    Os cookies, identificadores do dispositivo ou outras informações podem ser armazenados ou acedidos no seu dispositivo, para os fins acima indicados.

  • Anúncios e conteúdos personalizados, medição de anúncios e conteúdos, dados sobre o público-alvo e desenvolvimento de produtos

    Os anúncios e os conteúdos podem ser personalizados com base num perfil. Podem ser adicionados dados adicionais para uma maior personalização dos anúncios e dos conteúdos. A eficácia dos anúncios e dos conteúdos pode ser medida. Podem ser obtidas informações sobre o público que visualizou os anúncios e os conteúdos. Estes dados podem ser usados para desenvolver ou melhorar sistemas, softwares ou a experiência do utilizador.

Ao clicar em "Eu concordo”, permitirá o uso de cookies, identificadores do dispositivo e web beacons mencionados ou outras tecnologias semelhantes. As configurações do navegador do seu dispositivo podem ser alteradas.

Para certos fins, podem ser invocados interesses legítimos ao invés de consentimento. Pode ler mais informação sobre este assunto na nossa Política de Privacidade e Cookies.